Погода в Щучинске

Погода в Щучинске : погода сейчас, прогноз погоды и архив. Всё, что Вы хотите узнать о погоде в Щучинске!

Поиск расширенной информации на нашем сайте:

Другие новости

Новости СМИ2

Главная страница сайта

Новости сайта

03.07.2017

Напоминаем, что на нашем специализированном сайте Метеоцентр.Азия вы можете получить высокодетализированные автоматические прогнозы погоды по пунктам России, СНГ и мира в авиационном формате (включающие направление и скорость ветра, видимость, явления погоды, количество и форму облачности, нижнюю и верхнюю границу облачности).


Погода в Щучинске - сегодня

Время (UTC), дата Ветер
(°,м/с) 
Видим.   Явления Облачность Т
(°С)
Тd
(°С)
f(%) Тe
(°С)
Pmin
(гПа)
dP
(гПа)
Po
(мм)
O2
(г/м3)
Тmin Tmax R s Состояние
почвы
03 20.09.17 220 (ЮЗ) 20000 м    10/0 верхняя 
[Ci sp]
+13.4 +4.8 56 +13  1020.3  -1.1  730  280           
06 20.09.17 260 (З) 20000 м    10/3 1500 м верхняя 
[Cu hum|Ci sp]
+21.3 +7.5 41 +21  1017.8  -1.1  730  271  +6.1         
09 20.09.17 260 (З) 20000 м    10/0 верхняя 
[Ci sp]
+26.1 +7.2 30 +26  1015.4  -1.6  728  267           
12 20.09.17 280 (З) 8{15}  20000 м    6/0 верхняя 
[Ci fib]
+26 +6.1 28 +26  1014.5  -0.9  728  267           
15 20.09.17 260 (З) н/о    4/0 верхняя 
[Ci fib]
+21 +5.8 37 +21  1014.8  -0.5  727  271    +26.8       
18 20.09.17 250 (З) н/о    ясно 
+19.4 +5.1 39 +20  1013.5  -1.5  726  272    +26.8       
21 20.09.17 340 (С) н/о    ясно 
+14.6 +5.4 54 +15  1013.8  -0.4  726  277           
00 21.09.17 тихо ()   н/о    6/6 1000 м 
[Sc]
+8.8 +4.2 73 +9  1015.1  0.3  726  283           
03 21.09.17 тихо ()   20000 м    10/8 1000 м средняя 
[Sc|Ac trans]
+9.7 +6.1 78 +10  1015.8  0.8  727  282           
06 21.09.17 360 (С) 20000 м    10/3 1000 м средняя, верхняя 
[Cu med, cong|Ac trans|Cc]
+16.6 +6.7 52 +16  1014.7  0.1  727  275  +7.9         
09 21.09.17 300 (СЗ) 20000 м    9/5 600 м кучево-дожд., средняя, верхняя 
[Cb cap|Ac trans|Cc]
+18.2 +5.8 44 +18  1014.2  -0.3  727  273           
12 21.09.17 360 (С) 20000 м    10/5 600 м кучево-дожд., средняя, верхняя 
[Cb cap|Ac lent|Ci sp]
+16 +6.4 53 +16  1015.2  0.7  727  276           
15 21.09.17 030 (СВ) н/о    10/6 600 м кучево-дожд., средняя 
[Cb cap|Ac lent]
+11.7 +8.4 80 +10  1017.3  1.3  728  280    +18.7       
18 21.09.17 030 (СВ) н/о  слаб. ливневой дождь  10/10 200 м кучево-дожд. 
[Cb cap]
+7.6 +6.5 93 +6  1019.7  1.6  729  285    +18.7       
21 21.09.17 040 (СВ) н/о  слаб. ливневой дождь  10/10 200 м кучево-дожд. 
[Cb cap]
+6 +5.1 94 +4  1020.5  0.5  730  287           
00 22.09.17 050 (СВ) н/о  в посл. час ливневой дождь  10/10 300 м кучево-дожд. 
[Cb cap]
+5.6 +4.4 92 +5  1021.3  0.7  730  288           
03 22.09.17 030 (СВ) 20000 м  в посл. час ливневой дождь  10/10 200 м кучево-дожд. 
[Cb cap]
+5.5 +4.1 91 +4  1022.6  1.2  731  288      0.6     
06 22.09.17 330 (СЗ) 4000 м  слаб. ливневой дождь  10/10 300 м кучево-дожд. 
[Cb cap]
+6 +4 87 +5  1022.6  0.1  731  288  +5.2    0.6     
09 22.09.17 030 (СВ) 4000 м  слаб. ливневой дождь  10/10 300 м кучево-дожд. 
[Cb cap]
+5.8 +3.8 87 +5  1022.5  -0.1  731  288           
12 22.09.17 010 (С) 20000 м  {ливн. осадки}  10/4 600 м кучево-дожд., средняя, верхняя 
[Cb cap|Ac trans|Cc]
+7.2 +0.4 62 +6  1022.1  -0.2  731  287           
18 22.09.17 030 (СВ) н/о  слаб. ливневой дождь  10/10 300 м кучево-дожд. 
[Cb cap]
+3.7 +2.4 91 +1  1024.2  0.8  732  291    +7.5     
21 22.09.17 030 (СВ) н/о  в посл. час крупа{ливн. осадки}  9/9 300 м кучево-дожд. 
[Cb cap]
-0.1 -2.3 85 -4  1025.9  0.9  733  296           
00 23.09.17 010 (С) н/о  {ливн. осадки}  10/10 300 м кучево-дожд. 
[Cb cap]
-0.4 +6.6 100 -4  1027  733  295           
03 23.09.17 030 (СВ) 20000 м    10/10 600 м кучево-дожд. 
[Cb cap]
+0.1 -4.7 70 -3  1027.8  0.9  734  296         
06 23.09.17 350 (С) 4000 м  слаб. крупа{ливн. осадки}  10/10 300 м кучево-дожд. 
[Cb cap]
+0.3 -5.1 67 -3  1028.8  735  296  -0.6       
Время (UTC), дата Ветер
(°,м/с) 
Видим.   Явления Облачность Т
(°С)
Тd
(°С)
f(%) Тe
(°С)
Pmin
(гПа)
dP
(гПа)
Po
(мм)
O2
(г/м3)
Тmin Tmax R s Состояние
почвы

Для получения пояснительной информации подведите курсор к названию столбца.

ПОГОДА в Щучинске - архив

Всё, что Вы хотите узнать о погоде в Щучинске - удобно и подробно!

Выберите нужную дату (начиная с 1 января 2015* года) и нажмите кнопку "Найти".
Будут отображены архивные сводки погоды по пункту Щучинск, начиная с указанной даты.


Отображать данные в формате CSV (для использования в таблицах Excel)


Внимание! Наш архив погоды предназначен исключительно для личного некоммерческого использования в познавательных целях. Если Вам необходимы официальные справки о состоянии погоды (для производственных, юридических, коммерческих и т.п. целей), обращайтесь в органы Росгидромета.

*Примечание: данная дата относится к архиву по метеостанциям СССР (Россия, СНГ, Балтия).
Архив по метеостанциям Зарубежной Европы и Азии (кроме Китая) хранится 10 дней, по другим регионам земного шара (Китай, Африка, Америка, Австралия, Океания) - 1 день.

Щучинск - район местоположения метеостанции


Название, широта, долгота, высота метеостанции:
Щучинск 52.9°ш. 70.2°д. 395 м над ур. моря [Казахстан]

Дополнительная информация

В oтличие oт бoльшинства пoгoдных сайтoв мы публикуем пoдрoбную метеoинфoрмацию в детальнoм прoфессиoнальнoм фoрмате.

Характеристики температуры и влажнoсти вoздуха измеряются на высoте 2 м в тени вдали oт зданий и деревьев.
Скoрoсть ветра измеряется на высoте 10 м (на урoвне рoста челoвека скoрoсть ветра ниже в 1.5-2 раза). Если метеoстанция нахoдится в гoрoде или в лесу, тo скoрoсть ветра занижена на 2-4 м/с пo сравнению с oткрытым местoм. Скoрoсть ветра над акватoриями крупных рек и oзёр, а также на вершинах хoлмoв на 2-5 м/с выше, чем в oбычных услoвиях.
Атмoсфернoе давление в разных тoчках местнoсти мoжет значительнo oтличаться oт давления на метеoстанции, в зависимoсти oт услoвий рельефа (при пoдъёме на 10 м давление пoнижается примернo на 1 мм рт.ст.).